Vicksburg, LA

10:20 AM CDT on October 19, 2017 (GMT -0500)
Vicksburg Tallulah Regional

Weather History for KTVR - October, 2011

Change the Weather History Date:

Monday, October 24, 2011

  Actual Average Record
Temperature  
Mean Temperature 61 °F 63 °F  
Max Temperature 77 °F 76 °F 89 °F (2003)
Min Temperature 44 °F 50 °F 29 °F (1952)
Degree Days  
Heating Degree Days 4 5  
Month to date heating degree days 87 58  
Since 1 July heating degree days 88 63  
Cooling Degree Days 0 3  
Month to date cooling degree days 56 98  
Year to date cooling degree days 2547 2195  
Growing Degree Days 10 (Base 50)    
Moisture  
Dew Point 51 °F    
Average Humidity 67    
Maximum Humidity 100    
Minimum Humidity 33    
Precipitation  
Precipitation 0.00 in 0.17 in 2.57 in (1997)
Month to date precipitation 0.35 3.73  
Year to date precipitation 27.45 43.19  
Sea Level Pressure  
Sea Level Pressure 30.18 in    
Wind  
Wind Speed 3 mph (North)    
Max Wind Speed 9 mph    
Max Gust Speed 13 mph    
Visibility 5 miles    
Events Fog    
T = Trace of Precipitation, MM = Missing Value Source: NWS Daily Summary

Daily Weather History Graph

Daily Weather History Graph

Search for Another Location

Airport or City:

Trip Planner

Search our weather history database for the weather conditions in past years. The results will help you decide how hot, cold, wet, or windy it might be!

Date:

Astronomy

Oct. 24, 2011 Rise Set
Actual Time 7:14 AM CDT 6:21 PM CDT
Civil Twilight 6:49 AM CDT 6:46 PM CDT
Nautical Twilight 6:20 AM CDT 7:15 PM CDT
Astronomical Twilight 5:52 AM CDT 7:43 PM CDT
Moon 4:40 AM CDT (10/24) 4:42 PM CDT (10/24)
Length of Visible Light 11h 57m
Length of Day
11h 07m
Waning Crescent, 7% of the Moon is Illuminated
Oct 24
Waning Crescent
Oct 26
New
Nov 2
First Quarter
Nov 10
Full
Nov 18
Last Quarter

Hourly Weather History & Observations

Time (CDT) Temp. Dew Point Humidity Pressure Visibility Wind Dir Wind Speed Gust Speed Precip Events Conditions
12:53 AM 55.0 °F 54.0 °F 96% 30.14 in 5.0 mi NNW 3.5 mph - N/A   Clear
1:33 AM 53.6 °F 53.6 °F 100% 30.12 in 1.8 mi Calm Calm - N/A   Clear
1:42 AM 51.8 °F 51.8 °F 100% 30.12 in 0.2 mi NW 3.5 mph - N/A Fog Fog
1:53 AM 51.1 °F 51.1 °F 100% 30.14 in 0.2 mi NNW 3.5 mph - N/A Fog Fog
2:00 AM 53.6 °F 53.6 °F 100% 30.12 in 1.0 mi North 3.5 mph - N/A   Clear
2:03 AM 53.6 °F 53.6 °F 100% 30.12 in 3.0 mi North 3.5 mph - N/A   Clear
2:11 AM 51.8 °F 51.8 °F 100% 30.12 in 1.8 mi North 3.5 mph - N/A   Clear
2:33 AM 53.6 °F 53.6 °F 100% 30.12 in 2.5 mi NNW 3.5 mph - N/A   Clear
2:53 AM 54.0 °F 53.1 °F 97% 30.14 in 2.5 mi North 3.5 mph - N/A   Clear
3:06 AM 53.6 °F 51.8 °F 94% 30.12 in 1.2 mi North 3.5 mph - N/A   Scattered Clouds
3:14 AM 53.6 °F 51.8 °F 94% 30.12 in 1.5 mi North 3.5 mph - N/A   Mostly Cloudy
3:25 AM 53.6 °F 53.6 °F 100% 30.12 in 2.5 mi Calm Calm - N/A   Overcast
3:32 AM 55.4 °F 53.6 °F 94% 30.12 in 1.5 mi North 4.6 mph - N/A   Overcast
3:41 AM 55.4 °F 55.4 °F 100% 30.12 in 0.2 mi North 8.1 mph - N/A Fog Fog
3:53 AM 55.0 °F 55.0 °F 100% 30.15 in 0.2 mi North 5.8 mph - N/A Fog Fog
4:53 AM 55.0 °F 55.0 °F 100% 30.16 in 0.2 mi NNW 3.5 mph - N/A Fog Fog
5:23 AM 55.4 °F 55.4 °F 100% 30.15 in 1.2 mi North 6.9 mph - N/A   Overcast
5:38 AM 55.4 °F 55.4 °F 100% 30.15 in 2.5 mi North 4.6 mph - N/A   Overcast
5:53 AM 55.0 °F 55.0 °F 100% 30.17 in 3.0 mi North 5.8 mph - N/A   Overcast
7:53 AM 55.0 °F 53.1 °F 93% 30.22 in 6.0 mi NNE 6.9 mph - N/A   Overcast
8:53 AM 55.0 °F 52.0 °F 89% 30.24 in 8.0 mi NNE 6.9 mph - N/A   Overcast
9:53 AM 57.0 °F 52.0 °F 83% 30.26 in 10.0 mi NE 3.5 mph - N/A   Overcast
10:06 AM 57.2 °F 51.8 °F 82% 30.23 in 10.0 mi Calm Calm - N/A   Mostly Cloudy
10:26 AM 60.8 °F 51.8 °F 72% 30.24 in 10.0 mi NE 4.6 mph - N/A   Partly Cloudy
10:53 AM 61.0 °F 52.0 °F 72% 30.27 in 10.0 mi Calm Calm - N/A   Clear
11:53 AM 64.9 °F 52.0 °F 63% 30.27 in 10.0 mi Variable 3.5 mph - N/A   Clear
12:53 PM 70.0 °F 52.0 °F 53% 30.24 in 10.0 mi Calm Calm - N/A   Clear
1:53 PM 73.0 °F 51.1 °F 46% 30.21 in 10.0 mi NE 4.6 mph - N/A   Clear
2:53 PM 75.9 °F 50.0 °F 40% 30.19 in 10.0 mi Variable 6.9 mph - N/A   Clear
3:53 PM 77.0 °F 46.9 °F 34% 30.19 in 10.0 mi Variable 6.9 mph - N/A   Clear
4:53 PM 77.0 °F 46.9 °F 34% 30.19 in 10.0 mi ENE 4.6 mph - N/A   Clear
5:53 PM 73.0 °F 46.9 °F 39% 30.20 in 10.0 mi ENE 3.5 mph - N/A   Clear
7:53 PM 54.0 °F 52.0 °F 93% 30.22 in 10.0 mi Calm Calm - N/A   Clear
8:53 PM 54.0 °F 52.0 °F 93% 30.23 in 10.0 mi Calm Calm - N/A   Clear
10:53 PM 46.0 °F 45.0 °F 96% 30.25 in 5.0 mi Calm Calm - N/A   Clear
11:05 PM 46.4 °F 46.4 °F 100% 30.22 in 1.8 mi Calm Calm - N/A   Clear
11:20 PM 46.4 °F 44.6 °F 93% 30.22 in 0.2 mi Calm Calm - N/A Fog Fog
11:40 PM 44.6 °F 44.6 °F 100% 30.22 in 2.0 mi Calm Calm - N/A   Clear
11:49 PM 44.6 °F 44.6 °F 100% 30.22 in 0.8 mi Calm Calm - N/A   Clear
11:50 PM 45.0 °F 45.0 °F 100% 30.24 in 0.8 mi Calm Calm - N/A   Clear